Skip Page Navigation
NASA JPL Caltech
NASA Logo - Jet Propulsion Laboratory + View the NASA Portal
+ Center for Near-Earth Object Studies
JPL Home Earth Solar System Stars & Galaxies Technology
JPL Solar System Dynamics
BODIES ORBITS EPHEMERIDES TOOLS PHYSICAL DATA DISCOVERY FAQ SITE MAP
IMPORTANT: The SSD Announcement email list is now available. Major changes are coming in the near future, including possible hostname and/or URL changes. To be notified of such changes, subscribe to this email list.

Please visit this page for more details.


JPL Small-Body Database Browser
Search: [ help ]  
1981 Midas (1973 EA)
Classification: Apollo [NEO, PHA]          SPK-ID: 2001981
Ephemeris | Orbit Diagram | Orbital Elements | Mission Design | Physical Parameters | Discovery Circumstances | Close-Approach Data ]

[ hide orbit diagram ]

For accurate long-term ephemerides, please instead use our Horizons system.This orbit viewer was implemented using two-body methods, and hence should not be used for determining accurate long-term trajectories (over several years or decades) or planetary encounter circumstances.


[ revert to old Java-based viewer ]

Orbital Elements at Epoch 2458600.5 (2019-Apr-27.0) TDB
Reference: JPL 181 (heliocentric ecliptic J2000)
 Element Value Uncertainty (1-sigma)   Units 
e .650353417909928 2.4139e-08  
a 1.776599538133666 2.7671e-09 au
q .621181956251237 4.3261e-08 au
i 39.82689586872458 7.9295e-06 deg
node 356.886302133863 1.8673e-06 deg
peri 267.7977398881659 5.2154e-06 deg
M 146.2687119598268 1.411e-06 deg
tp 2458249.075787403071
(2018-May-10.57578740)
3.1682e-06 TDB
period 864.9335516787872
2.37
2.0207e-06
5.532e-09
d
yr
n .4162169444129671 9.7239e-10 deg/d
Q 2.932017120016095 4.5666e-09 au
  Orbit Determination Parameters
   # obs. used (total)      910  
   # delay obs. used      3  
   # Doppler obs. used      1  
   data-arc span      16761 days (45.89 yr)  
   first obs. used      1973-03-06  
   last obs. used      2019-01-25  
   planetary ephem.      DE431  
   SB-pert. ephem.      SB431-N16  
   condition code      0  
   norm. resid. RMS      .38047  
   source      ORB  
   producer      Otto Matic  
   solution date      2019-Jan-31 08:02:22  

Additional Information
 Earth MOID = .00371125 au 
 Jupiter MOID = 3.31386 au 
 T_jup = 3.611 
[ show covariance matrix ]

Ephemeris | Orbit Diagram | Orbital Elements | Mission Design | Physical Parameters | Discovery Circumstances | Close-Approach Data ]

Physical Parameter Table
Parameter Symbol Value Units Sigma Reference Notes
absolute magnitude H 15.2   n/a MPO439082  
diameter diameter 3.4 km n/a Hazards due to Comets and Asteroids (1994), Ed. T. Gehrels, pp.540-543 based on assumed medium albedo (0.15)
rotation period rot_per 5.220 h n/a LCDB (Rev. 2019-January); Warner et al., 2009 Published Reference List:
[Mottola, S.; De Angelis, G.; Di Martino, M.; Erikson, A.; et al. (1995) Icarus 117, 62-70; Mottola, S.; De Angelis, G.; Di Martino, M.; Erikson, A.; Harris, A.W.; Hahn, G.; Neukum, G.; Pravec, M.; Wolf, M. (1995) Lunar & Planetary Science XXVI, 1003-1004.]
[Wisniewski, W.Z.; Michalowski, T.M.; Harris, A.W.; McMillan, R.S. (1997) Icarus 126, 395-449; 1995, Lunar & Planetary Sci. XXVI, 1511-1512.]
[Torppa, J.; Aksnes, K.; Dai, Z.; Grav, T.; et al. (2005) Bull. Amer. Astron. Soc. 37, 643.]
[Franco, L.; Marchini, A.; Baj, G.; Scarfi, G.; et al. (2018) Minor Planet Bull. 45, 273-275.]
SMASSII spectral type spec_B V   n/a Binzel et al. (2001) Icarus 151, 139-149  

1981 Midas (1973 EA)          Discovered 1973-Mar-06 by Kowal, C. at Palomar
Reference: DISCOVERY.DBLast Updated: 2003-08-29

[ show close-approach data ]
Ephemeris | Orbit Diagram | Orbital Elements | Mission Design | Physical Parameters | Discovery Circumstances | Close-Approach Data ]
ABOUT SSD CREDITS/AWARDS PRIVACY/COPYRIGHT GLOSSARY LINKS
FirstGov 2019-Oct-21 01:16 UT
(server date/time)  
NASA Home Page
Site Manager:   Ryan S. Park
Webmaster  Alan B. Chamberlin